Wakefield, VA

2:44 PM EDT on March 27, 2017 (GMT -0400)
Wakefield Municipal

Weather History for KAKQ - November, 2012

Change the Weather History Date:

Thursday, November 8, 2012

  Actual Average (KJGG) Record (KJGG)
Temperature  
Mean Temperature 46 °F -  
Max Temperature 59 °F 62 °F 78 °F (1987)
Min Temperature 32 °F 40 °F 20 °F (1952)
Degree Days  
Heating Degree Days 19    
Moisture  
Dew Point 24 °F    
Average Humidity 53    
Maximum Humidity 82    
Minimum Humidity 14    
Precipitation  
Precipitation 0.01 in - - ()
Sea Level Pressure  
Sea Level Pressure 29.98 in    
Wind  
Wind Speed 3 mph (NW)    
Max Wind Speed 10 mph    
Max Gust Speed 20 mph    
Visibility 10 miles    
Events      
Averages and records for this station are not official NWS values.
T = Trace of Precipitation, MM = Missing Value Source: NWS Daily Summary

Daily Weather History Graph

Daily Weather History Graph

Search for Another Location

Airport or City:

Trip Planner

Search our weather history database for the weather conditions in past years. The results will help you decide how hot, cold, wet, or windy it might be!

Date:

Astronomy

Nov. 08, 2012 Rise Set
Actual Time 6:39 AM EST 5:03 PM EST
Civil Twilight 6:12 AM EST 5:30 PM EST
Nautical Twilight 5:41 AM EST 6:01 PM EST
Astronomical Twilight 5:10 AM EST 6:32 PM EST
Moon 12:41 AM EST (11/8) 1:35 PM EST (11/8)
Length of Visible Light 11h 18m
Length of Day
10h 23m
Waning Crescent, 33% of the Moon is Illuminated
Nov 8
Waning Crescent
Nov 13
New
Nov 20
First Quarter
Nov 28
Full
Dec 6
Last Quarter

Hourly Weather History & Observations

Time (EST) Temp. Windchill Dew Point Humidity Pressure Visibility Wind Dir Wind Speed Gust Speed Precip Events Conditions
12:25 AM 42.8 °F - 30.2 °F 61% 29.91 in 10.0 mi Calm Calm - N/A   Overcast
12:44 AM 42.8 °F 41.1 °F 30.2 °F 61% 29.91 in 10.0 mi Variable 3.5 mph - N/A   Overcast
12:54 AM 41.0 °F 38.0 °F 30.9 °F 67% 29.92 in 10.0 mi NNW 4.6 mph - N/A   Overcast
1:54 AM 42.1 °F 38.4 °F 28.9 °F 60% 29.92 in 10.0 mi NNW 5.8 mph - N/A   Overcast
3:54 AM 41.0 °F 35.8 °F 28.0 °F 60% 29.92 in 10.0 mi North 8.1 mph - N/A   Mostly Cloudy
4:54 AM 41.0 °F - 28.9 °F 62% 29.94 in 10.0 mi Calm Calm - N/A   Overcast
5:54 AM 39.9 °F 37.8 °F 30.0 °F 68% 29.94 in 10.0 mi West 3.5 mph - N/A   Overcast
6:54 AM 39.0 °F - 30.9 °F 73% 29.96 in 10.0 mi Calm Calm - N/A   Overcast
7:54 AM 39.9 °F - 30.0 °F 68% 29.99 in 10.0 mi Calm Calm - N/A   Overcast
8:54 AM 43.0 °F 40.3 °F 28.9 °F 58% 29.99 in 10.0 mi WNW 4.6 mph - N/A   Scattered Clouds
9:54 AM 48.9 °F - 25.0 °F 39% 29.99 in 10.0 mi NW 6.9 mph - N/A   Clear
10:54 AM 53.1 °F - 17.1 °F 24% 29.99 in 10.0 mi North 10.4 mph 18.4 mph N/A   Clear
11:54 AM 53.1 °F - 12.0 °F 20% 29.97 in 10.0 mi NNW 8.1 mph 19.6 mph N/A   Clear
12:54 PM 55.9 °F - 12.0 °F 18% 29.96 in 10.0 mi WNW 10.4 mph 19.6 mph N/A   Clear
1:54 PM 57.9 °F - 9.0 °F 14% 29.95 in 10.0 mi NNW 10.4 mph 17.3 mph 0.01 in   Clear
2:54 PM 57.9 °F - 10.0 °F 15% 29.94 in 10.0 mi NW 9.2 mph 16.1 mph N/A   Clear
3:54 PM 59.0 °F - 12.9 °F 16% 29.95 in 10.0 mi NW 5.8 mph - N/A   Clear
4:54 PM 51.1 °F - 25.0 °F 36% 29.95 in 10.0 mi Calm Calm - N/A   Clear
5:54 PM 42.1 °F - 27.0 °F 55% 29.98 in 10.0 mi Calm Calm - N/A   Clear
6:54 PM 39.9 °F - 27.0 °F 60% 30.01 in 10.0 mi Calm Calm - N/A   Clear
7:54 PM 34.0 °F - 28.9 °F 82% 30.03 in 10.0 mi Calm Calm - N/A   Clear
8:54 PM 35.1 °F - 28.0 °F 76% 30.05 in 10.0 mi Calm Calm - N/A   Clear
9:54 PM 34.0 °F - 27.0 °F 75% 30.07 in 10.0 mi Calm Calm - N/A   Clear
10:54 PM 33.1 °F - 26.1 °F 75% 30.08 in 10.0 mi Calm Calm - N/A   Clear
11:54 PM 32.0 °F - 26.1 °F 79% 30.09 in 10.0 mi Calm Calm - N/A   Clear